Year,Month,Day,Hour,Minute,Value (Times are PST for temperature in C)
2008,09,22,00,00,12.00
2008,09,22,00,01,12.00
2008,09,22,00,03,12.00
2008,09,22,00,04,12.00
2008,09,22,00,05,12.00
2008,09,22,00,06,11.90
2008,09,22,00,07,11.90
2008,09,22,00,09,11.90
2008,09,22,00,10,11.90
2008,09,22,00,11,11.90
2008,09,22,00,12,11.90
2008,09,22,00,13,11.90
2008,09,22,00,14,11.90
2008,09,22,00,15,11.90
2008,09,22,00,16,11.90
2008,09,22,00,17,11.90
2008,09,22,00,18,11.90
2008,09,22,00,19,11.90
2008,09,22,00,20,11.90
2008,09,22,00,21,11.90
2008,09,22,00,22,11.90
2008,09,22,00,23,11.90
2008,09,22,00,24,11.90
2008,09,22,00,25,11.90
2008,09,22,00,26,11.90
2008,09,22,00,27,11.90
2008,09,22,00,28,11.90
2008,09,22,00,29,11.90
2008,09,22,00,30,11.90
2008,09,22,00,31,11.90
2008,09,22,00,33,11.80
2008,09,22,00,34,11.80
2008,09,22,00,35,11.80
2008,09,22,00,36,11.80
2008,09,22,00,37,11.80
2008,09,22,00,38,11.80
2008,09,22,00,39,11.80
2008,09,22,00,40,11.80
2008,09,22,00,41,11.80
2008,09,22,00,42,11.80
2008,09,22,00,43,11.80
2008,09,22,00,44,11.80
2008,09,22,00,45,11.80
2008,09,22,00,46,11.80
2008,09,22,00,47,11.80
2008,09,22,00,48,11.80
2008,09,22,00,49,11.80
2008,09,22,00,50,11.80
2008,09,22,00,51,11.80
2008,09,22,00,52,11.70
2008,09,22,00,53,11.70
2008,09,22,00,54,11.70
2008,09,22,00,55,11.70
2008,09,22,00,56,11.70
2008,09,22,00,57,11.70
2008,09,22,00,58,11.70
2008,09,22,00,59,11.70
2008,09,22,01,00,11.70
2008,09,22,01,01,11.70
2008,09,22,01,02,11.70
2008,09,22,01,03,11.70
2008,09,22,01,04,11.70
2008,09,22,01,05,11.70
2008,09,22,01,06,11.70
2008,09,22,01,07,11.70
2008,09,22,01,08,11.70
2008,09,22,01,09,11.70
2008,09,22,01,10,11.70
2008,09,22,01,11,11.70
2008,09,22,01,12,11.60
2008,09,22,01,13,11.70
2008,09,22,01,14,11.70
2008,09,22,01,15,11.60
2008,09,22,01,16,11.60
2008,09,22,01,17,11.60
2008,09,22,01,18,11.60
2008,09,22,01,19,11.60
2008,09,22,01,20,11.60
2008,09,22,01,21,11.60
2008,09,22,01,22,11.60
2008,09,22,01,23,11.60
2008,09,22,01,24,11.60
2008,09,22,01,25,11.60
2008,09,22,01,26,11.60
2008,09,22,01,27,11.60
2008,09,22,01,28,11.60
2008,09,22,01,29,11.50
2008,09,22,01,30,11.50
2008,09,22,01,31,11.60
2008,09,22,01,32,11.50
2008,09,22,01,33,11.50
2008,09,22,01,34,11.50
2008,09,22,01,35,11.60
2008,09,22,01,36,11.60
2008,09,22,01,37,11.60
2008,09,22,01,38,11.60
2008,09,22,01,39,11.60
2008,09,22,01,40,11.60
2008,09,22,01,42,11.60
2008,09,22,01,43,11.60
2008,09,22,01,44,11.60
2008,09,22,01,45,11.60
2008,09,22,01,46,11.60
2008,09,22,01,47,11.60
2008,09,22,01,48,11.60
2008,09,22,01,49,11.60
2008,09,22,01,50,11.60
2008,09,22,01,52,11.60
2008,09,22,01,54,11.60
2008,09,22,01,55,11.60
2008,09,22,01,56,11.60
2008,09,22,01,57,11.60
2008,09,22,01,58,11.60
2008,09,22,01,59,11.60
2008,09,22,02,00,11.60
2008,09,22,02,01,11.60
2008,09,22,02,02,11.60
2008,09,22,02,03,11.60
2008,09,22,02,04,11.60
2008,09,22,02,05,11.60
2008,09,22,02,06,11.60
2008,09,22,02,07,11.60
2008,09,22,02,08,11.60
2008,09,22,02,09,11.60
2008,09,22,02,10,11.60
2008,09,22,02,11,11.60
2008,09,22,02,12,11.50
2008,09,22,02,13,11.50
2008,09,22,02,14,11.50
2008,09,22,02,15,11.50
2008,09,22,02,16,11.50
2008,09,22,02,17,11.50
2008,09,22,02,18,11.50
2008,09,22,02,19,11.50
2008,09,22,02,20,11.40
2008,09,22,02,21,11.40
2008,09,22,02,22,11.40
2008,09,22,02,23,11.40
2008,09,22,02,24,11.40
2008,09,22,02,25,11.40
2008,09,22,02,26,11.40
2008,09,22,02,27,11.40
2008,09,22,02,28,11.40
2008,09,22,02,29,11.40
2008,09,22,02,30,11.40
2008,09,22,02,31,11.30
2008,09,22,02,32,11.40
2008,09,22,02,33,11.40
2008,09,22,02,34,11.30
2008,09,22,02,35,11.40
2008,09,22,02,36,11.30
2008,09,22,02,37,11.30
2008,09,22,02,38,11.30
2008,09,22,02,39,11.30
2008,09,22,02,40,11.30
2008,09,22,02,41,11.40
2008,09,22,02,42,11.40
2008,09,22,02,43,11.30
2008,09,22,02,44,11.40
2008,09,22,02,45,11.40
2008,09,22,02,46,11.40
2008,09,22,02,47,11.30
2008,09,22,02,48,11.30
2008,09,22,02,49,11.30
2008,09,22,02,50,11.30
2008,09,22,02,51,11.30
2008,09,22,02,52,11.30
2008,09,22,02,53,11.20
2008,09,22,02,54,11.20
2008,09,22,02,55,11.20
2008,09,22,02,56,11.20
2008,09,22,02,57,11.20
2008,09,22,02,58,11.10
2008,09,22,02,59,11.10
2008,09,22,03,00,11.10
2008,09,22,03,01,11.10
2008,09,22,03,02,11.00
2008,09,22,03,03,11.00
2008,09,22,03,04,11.00
2008,09,22,03,05,10.90
2008,09,22,03,06,10.90
2008,09,22,03,07,10.90
2008,09,22,03,08,10.90
2008,09,22,03,09,10.90
2008,09,22,03,10,10.80
2008,09,22,03,11,10.80
2008,09,22,03,12,10.80
2008,09,22,03,13,10.80
2008,09,22,03,14,10.80
2008,09,22,03,15,10.80
2008,09,22,03,16,10.70
2008,09,22,03,17,10.70
2008,09,22,03,18,10.70
2008,09,22,03,19,10.60
2008,09,22,03,20,10.60
2008,09,22,03,21,10.60
2008,09,22,03,22,10.60
2008,09,22,03,23,10.60
2008,09,22,03,24,10.60
2008,09,22,03,25,10.60
2008,09,22,03,26,10.50
2008,09,22,03,27,10.50
2008,09,22,03,28,10.50
2008,09,22,03,29,10.50
2008,09,22,03,30,10.50
2008,09,22,03,31,10.40
2008,09,22,03,32,10.40
2008,09,22,03,33,10.40
2008,09,22,03,34,10.40
2008,09,22,03,35,10.40
2008,09,22,03,36,10.40
2008,09,22,03,37,10.40
2008,09,22,03,38,10.40
2008,09,22,03,39,10.40
2008,09,22,03,40,10.40
2008,09,22,03,41,10.40
2008,09,22,03,42,10.40
2008,09,22,03,43,10.40
2008,09,22,03,44,10.40
2008,09,22,03,45,10.40
2008,09,22,03,46,10.40
2008,09,22,03,47,10.30
2008,09,22,03,48,10.30
2008,09,22,03,49,10.30
2008,09,22,03,50,10.30
2008,09,22,03,51,10.30
2008,09,22,03,52,10.30
2008,09,22,03,53,10.30
2008,09,22,03,54,10.30
2008,09,22,03,55,10.30
2008,09,22,03,56,10.30
2008,09,22,03,57,10.20
2008,09,22,03,58,10.20
2008,09,22,03,59,10.20
2008,09,22,04,00,10.20
2008,09,22,04,01,10.20
2008,09,22,04,02,10.20
2008,09,22,04,03,10.20
2008,09,22,04,04,10.10
2008,09,22,04,05,10.10
2008,09,22,04,06,10.10
2008,09,22,04,07,10.10
2008,09,22,04,08,10.10
2008,09,22,04,09,10.10
2008,09,22,04,10,10.10
2008,09,22,04,11,10.10
2008,09,22,04,12,10.00
2008,09,22,04,13,10.00
2008,09,22,04,14,10.00
2008,09,22,04,15,10.00
2008,09,22,04,16,9.90
2008,09,22,04,17,9.90
2008,09,22,04,18,9.90
2008,09,22,04,19,9.90
2008,09,22,04,20,9.90
2008,09,22,04,21,9.90
2008,09,22,04,22,9.90
2008,09,22,04,23,9.90
2008,09,22,04,24,9.90
2008,09,22,04,25,9.80
2008,09,22,04,26,9.80
2008,09,22,04,27,9.80
2008,09,22,04,28,9.80
2008,09,22,04,29,9.80
2008,09,22,04,30,9.80
2008,09,22,04,31,9.80
2008,09,22,04,32,9.80
2008,09,22,04,33,9.80
2008,09,22,04,34,9.80
2008,09,22,04,35,9.80
2008,09,22,04,36,9.80
2008,09,22,04,37,9.80
2008,09,22,04,38,9.80
2008,09,22,04,39,9.80
2008,09,22,04,40,9.80
2008,09,22,04,41,9.80
2008,09,22,04,42,9.80
2008,09,22,04,43,9.80
2008,09,22,04,44,9.80
2008,09,22,04,45,9.70
2008,09,22,04,46,9.70
2008,09,22,04,47,9.70
2008,09,22,04,48,9.70
2008,09,22,04,49,9.70
2008,09,22,04,50,9.70
2008,09,22,04,51,9.70
2008,09,22,04,52,9.70
2008,09,22,04,53,9.70
2008,09,22,04,54,9.70
2008,09,22,04,55,9.70
2008,09,22,04,56,9.70
2008,09,22,04,57,9.70
2008,09,22,04,58,9.70
2008,09,22,04,59,9.70
2008,09,22,05,00,9.70
2008,09,22,05,01,9.70
2008,09,22,05,02,9.70
2008,09,22,05,03,9.70
2008,09,22,05,04,9.70
2008,09,22,05,05,9.70
2008,09,22,05,06,9.70
2008,09,22,05,07,9.70
2008,09,22,05,08,9.70
2008,09,22,05,09,9.70
2008,09,22,05,10,9.70
2008,09,22,05,11,9.70
2008,09,22,05,12,9.70
2008,09,22,05,13,9.70
2008,09,22,05,14,9.70
2008,09,22,05,15,9.70
2008,09,22,05,16,9.70
2008,09,22,05,17,9.70
2008,09,22,05,18,9.70
2008,09,22,05,19,9.70
2008,09,22,05,20,9.70
2008,09,22,05,21,9.70
2008,09,22,05,22,9.70
2008,09,22,05,23,9.70
2008,09,22,05,24,9.70
2008,09,22,05,25,9.70
2008,09,22,05,26,9.70
2008,09,22,05,27,9.70
2008,09,22,05,28,9.70
2008,09,22,05,29,9.70
2008,09,22,05,30,9.70
2008,09,22,05,31,9.60
2008,09,22,05,32,9.60
2008,09,22,05,33,9.60
2008,09,22,05,34,9.60
2008,09,22,05,35,9.60
2008,09,22,05,36,9.60
2008,09,22,05,37,9.60
2008,09,22,05,38,9.60
2008,09,22,05,39,9.60
2008,09,22,05,40,9.60
2008,09,22,05,41,9.50
2008,09,22,05,42,9.50
2008,09,22,05,43,9.40
2008,09,22,05,44,9.40
2008,09,22,05,45,9.40
2008,09,22,05,46,9.40
2008,09,22,05,47,9.40
2008,09,22,05,48,9.40
2008,09,22,05,49,9.30
2008,09,22,05,50,9.30
2008,09,22,05,51,9.30
2008,09,22,05,52,9.30
2008,09,22,05,53,9.30
2008,09,22,05,54,9.30
2008,09,22,05,55,9.30
2008,09,22,05,56,9.20
2008,09,22,05,57,9.20
2008,09,22,05,58,9.20
2008,09,22,05,59,9.20
2008,09,22,06,00,9.20
2008,09,22,06,01,9.10
2008,09,22,06,02,9.10
2008,09,22,06,03,9.10
2008,09,22,06,04,9.10
2008,09,22,06,05,9.10
2008,09,22,06,06,9.00
2008,09,22,06,07,9.00
2008,09,22,06,08,9.00
2008,09,22,06,09,9.00
2008,09,22,06,10,8.90
2008,09,22,06,11,8.90
2008,09,22,06,12,8.90
2008,09,22,06,13,8.90
2008,09,22,06,14,8.90
2008,09,22,06,15,8.90
2008,09,22,06,16,8.80
2008,09,22,06,17,8.80
2008,09,22,06,18,8.80
2008,09,22,06,19,8.80
2008,09,22,06,20,8.80
2008,09,22,06,21,8.70
2008,09,22,06,22,8.70
2008,09,22,06,23,8.70
2008,09,22,06,24,8.70
2008,09,22,06,25,8.70
2008,09,22,06,26,8.70
2008,09,22,06,27,8.70
2008,09,22,06,28,8.60
2008,09,22,06,29,8.60
2008,09,22,06,30,8.60
2008,09,22,06,31,8.60
2008,09,22,06,32,8.60
2008,09,22,06,33,8.60
2008,09,22,06,34,8.50
2008,09,22,06,35,8.50
2008,09,22,06,36,8.50
2008,09,22,06,37,8.40
2008,09,22,06,38,8.40
2008,09,22,06,39,8.40
2008,09,22,06,40,8.40
2008,09,22,06,41,8.40
2008,09,22,06,42,8.40
2008,09,22,06,43,8.40
2008,09,22,06,44,8.30
2008,09,22,06,45,8.30
2008,09,22,06,46,8.30
2008,09,22,06,47,8.30
2008,09,22,06,48,8.30
2008,09,22,06,49,8.30
2008,09,22,06,50,8.30
2008,09,22,06,51,8.30
2008,09,22,06,52,8.30
2008,09,22,06,53,8.30
2008,09,22,06,54,8.20
2008,09,22,06,55,8.20
2008,09,22,06,56,8.20
2008,09,22,06,57,8.20
2008,09,22,06,58,8.20
2008,09,22,06,59,8.20
2008,09,22,07,00,8.20
2008,09,22,07,01,8.10
2008,09,22,07,02,8.10
2008,09,22,07,03,8.10
2008,09,22,07,04,8.10
2008,09,22,07,05,8.10
2008,09,22,07,06,8.10
2008,09,22,07,07,8.00
2008,09,22,07,08,8.00
2008,09,22,07,09,8.00
2008,09,22,07,10,7.90
2008,09,22,07,11,7.90
2008,09,22,07,12,7.90
2008,09,22,07,13,7.90
2008,09,22,07,14,7.90
2008,09,22,07,15,7.90
2008,09,22,07,16,7.90
2008,09,22,07,17,7.90
2008,09,22,07,18,7.90
2008,09,22,07,19,7.90
2008,09,22,07,20,7.90
2008,09,22,07,21,7.90
2008,09,22,07,22,7.80
2008,09,22,07,23,7.80
2008,09,22,07,24,7.80
2008,09,22,07,25,7.80
2008,09,22,07,26,7.80
2008,09,22,07,27,7.80
2008,09,22,07,28,7.80
2008,09,22,07,29,7.80
2008,09,22,07,30,7.70
2008,09,22,07,31,7.70
2008,09,22,07,32,7.70
2008,09,22,07,33,7.70
2008,09,22,07,34,7.70
2008,09,22,07,35,7.70
2008,09,22,07,36,7.70
2008,09,22,07,37,7.70
2008,09,22,07,38,7.70
2008,09,22,07,39,7.60
2008,09,22,07,40,7.70
2008,09,22,07,41,7.60
2008,09,22,07,42,7.60
2008,09,22,07,43,7.70
2008,09,22,07,44,7.70
2008,09,22,07,45,7.70
2008,09,22,07,46,7.70
2008,09,22,07,47,7.70
2008,09,22,07,48,7.70
2008,09,22,07,49,7.70
2008,09,22,07,50,7.70
2008,09,22,07,51,7.70
2008,09,22,07,52,7.70
2008,09,22,07,53,7.80
2008,09,22,07,54,7.80
2008,09,22,07,55,7.80
2008,09,22,07,56,7.80
2008,09,22,07,57,7.80
2008,09,22,07,58,7.80
2008,09,22,07,59,7.80
2008,09,22,08,00,7.80
2008,09,22,08,01,7.80
2008,09,22,08,02,7.80
2008,09,22,08,03,7.80
2008,09,22,08,04,7.80
2008,09,22,08,05,7.80
2008,09,22,08,06,7.80
2008,09,22,08,07,7.80
2008,09,22,08,08,7.80
2008,09,22,08,09,7.80
2008,09,22,08,10,7.80
2008,09,22,08,11,7.80
2008,09,22,08,12,7.90
2008,09,22,08,13,7.90
2008,09,22,08,14,7.90
2008,09,22,08,15,7.90
2008,09,22,08,16,7.90
2008,09,22,08,17,7.90
2008,09,22,08,18,7.90
2008,09,22,08,19,8.00
2008,09,22,08,20,8.00
2008,09,22,08,21,8.10
2008,09,22,08,22,8.20
2008,09,22,08,23,8.30
2008,09,22,08,24,8.30
2008,09,22,08,25,8.50
2008,09,22,08,26,8.60
2008,09,22,08,27,8.70
2008,09,22,08,28,8.80
2008,09,22,08,29,8.90
2008,09,22,08,30,8.90
2008,09,22,08,31,9.10
2008,09,22,08,32,9.20
2008,09,22,08,33,9.30
2008,09,22,08,34,9.30
2008,09,22,08,35,9.40
2008,09,22,08,36,9.50
2008,09,22,08,37,9.60
2008,09,22,08,38,9.70
2008,09,22,08,39,9.70
2008,09,22,08,40,9.80
2008,09,22,08,41,9.80
2008,09,22,08,42,9.90
2008,09,22,08,43,9.90
2008,09,22,08,44,10.00
2008,09,22,08,45,10.10
2008,09,22,08,46,10.10
2008,09,22,08,47,10.20
2008,09,22,08,48,10.20
2008,09,22,08,49,10.30
2008,09,22,08,50,10.40
2008,09,22,08,51,10.50
2008,09,22,08,52,10.60
2008,09,22,08,53,10.70
2008,09,22,08,54,10.80
2008,09,22,08,55,10.90
2008,09,22,08,56,11.00
2008,09,22,08,57,11.10
2008,09,22,08,58,11.20
2008,09,22,08,59,11.30
2008,09,22,09,00,11.40
2008,09,22,09,01,11.40
2008,09,22,09,02,11.60
2008,09,22,09,03,11.60
2008,09,22,09,04,11.70
2008,09,22,09,05,11.70
2008,09,22,09,06,11.80
2008,09,22,09,07,11.90
2008,09,22,09,08,11.90
2008,09,22,09,09,12.10
2008,09,22,09,10,12.10
2008,09,22,09,11,12.20
2008,09,22,09,12,12.20
2008,09,22,09,13,12.10
2008,09,22,09,14,12.10
2008,09,22,09,15,12.00
2008,09,22,09,16,11.90
2008,09,22,09,17,11.80
2008,09,22,09,18,11.80
2008,09,22,09,19,11.70
2008,09,22,09,20,11.70
2008,09,22,09,21,11.70
2008,09,22,09,22,11.60
2008,09,22,09,23,11.60
2008,09,22,09,24,11.60
2008,09,22,09,25,11.60
2008,09,22,09,26,11.60
2008,09,22,09,27,11.60
2008,09,22,09,28,11.60
2008,09,22,09,29,11.70
2008,09,22,09,30,11.70
2008,09,22,09,31,11.70
2008,09,22,09,32,11.80
2008,09,22,09,33,11.80
2008,09,22,09,34,11.90
2008,09,22,09,35,11.90
2008,09,22,09,36,12.00
2008,09,22,09,37,12.10
2008,09,22,09,38,12.20
2008,09,22,09,39,12.20
2008,09,22,09,40,12.30
2008,09,22,09,41,12.30
2008,09,22,09,42,12.30
2008,09,22,09,43,12.30
2008,09,22,09,44,12.30
2008,09,22,09,45,12.20
2008,09,22,09,46,12.20
2008,09,22,09,47,12.20
2008,09,22,09,48,12.10
2008,09,22,09,49,12.10
2008,09,22,09,50,12.20
2008,09,22,09,51,12.20
2008,09,22,09,52,12.20
2008,09,22,09,53,12.30
2008,09,22,09,54,12.20
2008,09,22,09,55,12.30
2008,09,22,09,56,12.30
2008,09,22,09,57,12.30
2008,09,22,09,58,12.40
2008,09,22,09,59,12.60
2008,09,22,10,00,12.70
2008,09,22,10,01,12.80
2008,09,22,10,02,12.90
2008,09,22,10,03,12.90
2008,09,22,10,04,12.90
2008,09,22,10,05,12.90
2008,09,22,10,06,12.90
2008,09,22,10,07,12.90
2008,09,22,10,08,12.90
2008,09,22,10,09,12.80
2008,09,22,10,10,12.70
2008,09,22,10,11,12.70
2008,09,22,10,12,12.60
2008,09,22,10,13,12.40
2008,09,22,10,14,12.40
2008,09,22,10,15,12.30
2008,09,22,10,16,12.30
2008,09,22,10,17,12.40
2008,09,22,10,18,12.40
2008,09,22,10,19,12.40
2008,09,22,10,20,12.40
2008,09,22,10,21,12.40
2008,09,22,10,22,12.40
2008,09,22,10,23,12.40
2008,09,22,10,24,12.50
2008,09,22,10,25,12.60
2008,09,22,10,26,12.60
2008,09,22,10,27,12.70
2008,09,22,10,28,12.80
2008,09,22,10,29,12.80
2008,09,22,10,30,12.80
2008,09,22,10,31,12.80
2008,09,22,10,32,12.90
2008,09,22,10,33,12.90
2008,09,22,10,34,12.90
2008,09,22,10,35,12.90
2008,09,22,10,36,12.90
2008,09,22,10,37,12.90
2008,09,22,10,38,12.90
2008,09,22,10,39,13.00
2008,09,22,10,40,13.10
2008,09,22,10,41,13.20
2008,09,22,10,42,13.20
2008,09,22,10,43,13.30
2008,09,22,10,44,13.30
2008,09,22,10,45,13.40
2008,09,22,10,46,13.60
2008,09,22,10,47,13.60
2008,09,22,10,48,13.70
2008,09,22,10,49,13.70
2008,09,22,10,50,13.70
2008,09,22,10,51,13.70
2008,09,22,10,52,13.60
2008,09,22,10,53,13.60
2008,09,22,10,54,13.60
2008,09,22,10,55,13.60
2008,09,22,10,56,13.60
2008,09,22,10,57,13.60
2008,09,22,10,58,13.70
2008,09,22,10,59,13.70
2008,09,22,11,00,13.80
2008,09,22,11,01,13.90
2008,09,22,11,02,14.10
2008,09,22,11,03,14.20
2008,09,22,11,04,14.20
2008,09,22,11,05,14.30
2008,09,22,11,06,14.30
2008,09,22,11,07,14.30
2008,09,22,11,08,14.30
2008,09,22,11,09,14.30
2008,09,22,11,10,14.20
2008,09,22,11,11,14.10
2008,09,22,11,12,14.10
2008,09,22,11,13,14.00
2008,09,22,11,14,13.90
2008,09,22,11,15,13.90
2008,09,22,11,16,13.90
2008,09,22,11,17,13.80
2008,09,22,11,18,13.80
2008,09,22,11,19,13.70
2008,09,22,11,20,13.70
2008,09,22,11,21,13.70
2008,09,22,11,22,13.70
2008,09,22,11,23,13.80
2008,09,22,11,24,13.80
2008,09,22,11,25,13.90
2008,09,22,11,26,14.00
2008,09,22,11,27,14.10
2008,09,22,11,28,14.20
2008,09,22,11,29,14.20
2008,09,22,11,30,14.20
2008,09,22,11,31,14.10
2008,09,22,11,32,14.10
2008,09,22,11,33,14.00
2008,09,22,11,34,14.00
2008,09,22,11,35,14.00
2008,09,22,11,36,14.00
2008,09,22,11,37,14.10
2008,09,22,11,38,14.20
2008,09,22,11,39,14.20
2008,09,22,11,40,14.20
2008,09,22,11,41,14.20
2008,09,22,11,42,14.30
2008,09,22,11,43,14.40
2008,09,22,11,44,14.40
2008,09,22,11,45,14.40
2008,09,22,11,46,14.50
2008,09,22,11,47,14.50
2008,09,22,11,48,14.50
2008,09,22,11,49,14.60
2008,09,22,11,50,14.60
2008,09,22,11,51,14.60
2008,09,22,11,52,14.60
2008,09,22,11,53,14.60
2008,09,22,11,54,14.60
2008,09,22,11,55,14.70
2008,09,22,11,56,14.70
2008,09,22,11,57,14.80
2008,09,22,11,58,14.90
2008,09,22,11,59,15.00
2008,09,22,12,00,15.00
2008,09,22,12,01,15.20
2008,09,22,12,02,15.30
2008,09,22,12,03,15.40
2008,09,22,12,04,15.50
2008,09,22,12,05,15.60
2008,09,22,12,06,15.70
2008,09,22,12,07,15.80
2008,09,22,12,08,15.90
2008,09,22,12,09,16.10
2008,09,22,12,10,16.10
2008,09,22,12,11,16.20
2008,09,22,12,12,16.20
2008,09,22,12,13,16.20
2008,09,22,12,14,16.20
2008,09,22,12,15,16.10
2008,09,22,12,16,16.10
2008,09,22,12,17,16.10
2008,09,22,12,18,16.20
2008,09,22,12,19,16.20
2008,09,22,12,20,16.20
2008,09,22,12,21,16.20
2008,09,22,12,22,16.20
2008,09,22,12,23,16.20
2008,09,22,12,24,16.20
2008,09,22,12,25,16.20
2008,09,22,12,26,16.30
2008,09,22,12,27,16.30
2008,09,22,12,28,16.40
2008,09,22,12,29,16.40
2008,09,22,12,30,16.50
2008,09,22,12,31,16.60
2008,09,22,12,32,16.60
2008,09,22,12,33,16.60
2008,09,22,12,34,16.70
2008,09,22,12,35,16.70
2008,09,22,12,36,16.80
2008,09,22,12,37,16.80
2008,09,22,12,38,16.80
2008,09,22,12,39,16.80
2008,09,22,12,40,16.90
2008,09,22,12,41,16.90
2008,09,22,12,42,16.90
2008,09,22,12,43,16.90
2008,09,22,12,44,16.90
2008,09,22,12,45,16.90
2008,09,22,12,46,16.90
2008,09,22,12,47,16.90
2008,09,22,12,48,16.90
2008,09,22,12,49,16.80
2008,09,22,12,50,16.90
2008,09,22,12,51,16.90
2008,09,22,12,52,16.80
2008,09,22,12,53,16.80
2008,09,22,12,54,16.90
2008,09,22,12,55,16.90
2008,09,22,12,56,17.00
2008,09,22,12,57,17.00
2008,09,22,12,58,17.00
2008,09,22,12,59,17.10
2008,09,22,13,00,17.10
2008,09,22,13,01,17.10
2008,09,22,13,02,17.20
2008,09,22,13,03,17.20
2008,09,22,13,04,17.30
2008,09,22,13,05,17.40
2008,09,22,13,06,17.40
2008,09,22,13,07,17.30
2008,09,22,13,08,17.30
2008,09,22,13,09,17.20
2008,09,22,13,10,17.20
2008,09,22,13,11,17.10
2008,09,22,13,12,17.10
2008,09,22,13,13,17.10
2008,09,22,13,14,17.20
2008,09,22,13,15,17.20
2008,09,22,13,16,17.30
2008,09,22,13,17,17.30
2008,09,22,13,18,17.40
2008,09,22,13,19,17.50
2008,09,22,13,20,17.60
2008,09,22,13,21,17.70
2008,09,22,13,22,17.70
2008,09,22,13,23,17.80
2008,09,22,13,24,17.90
2008,09,22,13,25,17.90
2008,09,22,13,26,18.00
2008,09,22,13,27,18.10
2008,09,22,13,28,18.10
2008,09,22,13,29,18.20
2008,09,22,13,30,18.30
2008,09,22,13,31,18.30
2008,09,22,13,32,18.40
2008,09,22,13,33,18.60
2008,09,22,13,34,18.60
2008,09,22,13,35,18.70
2008,09,22,13,36,18.70
2008,09,22,13,37,18.80
2008,09,22,13,38,18.80
2008,09,22,13,39,18.80
2008,09,22,13,40,18.90
2008,09,22,13,41,18.90
2008,09,22,13,42,18.90
2008,09,22,13,43,18.90
2008,09,22,13,44,18.70
2008,09,22,13,45,18.50
2008,09,22,13,46,18.40
2008,09,22,13,47,18.30
2008,09,22,13,48,18.20
2008,09,22,13,49,18.20
2008,09,22,13,50,18.20
2008,09,22,13,51,18.20
2008,09,22,13,52,18.20
2008,09,22,13,54,18.30
2008,09,22,13,55,18.30
2008,09,22,13,56,18.30
2008,09,22,13,57,18.30
2008,09,22,13,58,18.40
2008,09,22,13,59,18.60
2008,09,22,14,00,18.60
2008,09,22,14,01,18.70
2008,09,22,14,02,18.70
2008,09,22,14,03,18.80
2008,09,22,14,04,18.90
2008,09,22,14,05,18.90
2008,09,22,14,06,19.00
2008,09,22,14,07,19.10
2008,09,22,14,08,19.20
2008,09,22,14,09,19.20
2008,09,22,14,10,19.20
2008,09,22,14,11,19.30
2008,09,22,14,12,19.30
2008,09,22,14,13,19.40
2008,09,22,14,14,19.40
2008,09,22,14,15,19.50
2008,09,22,14,16,19.60
2008,09,22,14,17,19.60
2008,09,22,14,18,19.70
2008,09,22,14,19,19.70
2008,09,22,14,20,19.80
2008,09,22,14,21,19.80
2008,09,22,14,22,19.90
2008,09,22,14,23,19.90
2008,09,22,14,24,19.90
2008,09,22,14,25,19.90
2008,09,22,14,26,19.90
2008,09,22,14,27,19.90
2008,09,22,14,28,20.00
2008,09,22,14,29,20.00
2008,09,22,14,30,20.00
2008,09,22,14,31,20.10
2008,09,22,14,32,20.10
2008,09,22,14,33,20.10
2008,09,22,14,34,20.20
2008,09,22,14,35,20.20
2008,09,22,14,36,20.20
2008,09,22,14,37,20.30
2008,09,22,14,38,20.30
2008,09,22,14,39,20.30
2008,09,22,14,40,20.40
2008,09,22,14,41,20.40
2008,09,22,14,42,20.40
2008,09,22,14,43,20.40
2008,09,22,14,44,20.50
2008,09,22,14,45,20.50
2008,09,22,14,46,20.50
2008,09,22,14,47,20.50
2008,09,22,14,48,20.60
2008,09,22,14,49,20.60
2008,09,22,14,50,20.60
2008,09,22,14,51,20.60
2008,09,22,14,52,20.60
2008,09,22,14,53,20.60
2008,09,22,14,54,20.60
2008,09,22,14,55,20.60
2008,09,22,14,56,20.60
2008,09,22,14,57,20.60
2008,09,22,14,58,20.60
2008,09,22,14,59,20.60
2008,09,22,15,00,20.60
2008,09,22,15,01,20.60
2008,09,22,15,02,20.60
2008,09,22,15,03,20.60
2008,09,22,15,04,20.60
2008,09,22,15,05,20.60
2008,09,22,15,06,20.60
2008,09,22,15,07,20.60
2008,09,22,15,08,20.60
2008,09,22,15,09,20.60
2008,09,22,15,10,20.60
2008,09,22,15,11,20.50
2008,09,22,15,12,20.50
2008,09,22,15,13,20.50
2008,09,22,15,14,20.50
2008,09,22,15,15,20.50
2008,09,22,15,16,20.50
2008,09,22,15,17,20.50
2008,09,22,15,18,20.50
2008,09,22,15,19,20.50
2008,09,22,15,20,20.40
2008,09,22,15,21,20.50
2008,09,22,15,22,20.50
2008,09,22,15,23,20.50
2008,09,22,15,24,20.50
2008,09,22,15,25,20.40
2008,09,22,15,26,20.40
2008,09,22,15,27,20.40
2008,09,22,15,28,20.40
2008,09,22,15,29,20.40
2008,09,22,15,30,20.40
2008,09,22,15,31,20.40
2008,09,22,15,32,20.40
2008,09,22,15,33,20.50
2008,09,22,15,34,20.50
2008,09,22,15,35,20.50
2008,09,22,15,36,20.50
2008,09,22,15,37,20.60
2008,09,22,15,38,20.60
2008,09,22,15,39,20.60
2008,09,22,15,40,20.60
2008,09,22,15,41,20.60
2008,09,22,15,42,20.60
2008,09,22,15,43,20.60
2008,09,22,15,44,20.60
2008,09,22,15,45,20.60
2008,09,22,15,46,20.60
2008,09,22,15,47,20.50
2008,09,22,15,48,20.50
2008,09,22,15,49,20.40
2008,09,22,15,50,20.40
2008,09,22,15,51,20.40
2008,09,22,15,53,20.50
2008,09,22,15,54,20.50
2008,09,22,15,55,20.50
2008,09,22,15,57,20.60
2008,09,22,15,58,20.60
2008,09,22,15,59,20.60
2008,09,22,16,00,20.60
2008,09,22,16,01,20.60
2008,09,22,16,02,20.50
2008,09,22,16,03,20.60
2008,09,22,16,04,20.60
2008,09,22,16,05,20.60
2008,09,22,16,06,20.60
2008,09,22,16,07,20.60
2008,09,22,16,08,20.60
2008,09,22,16,09,20.60
2008,09,22,16,10,20.60
2008,09,22,16,11,20.60
2008,09,22,16,12,20.50
2008,09,22,16,13,20.60
2008,09,22,16,14,20.50
2008,09,22,16,15,20.60
2008,09,22,16,16,20.50
2008,09,22,16,17,20.50
2008,09,22,16,18,20.40
2008,09,22,16,19,20.40
2008,09,22,16,20,20.40
2008,09,22,16,21,20.40
2008,09,22,16,23,20.30
2008,09,22,16,24,20.30
2008,09,22,16,25,20.30
2008,09,22,16,26,20.20
2008,09,22,16,27,20.20
2008,09,22,16,28,20.10
2008,09,22,16,29,20.10
2008,09,22,16,30,20.00
2008,09,22,16,31,20.00
2008,09,22,16,32,20.10
2008,09,22,16,33,20.00
2008,09,22,16,34,20.00
2008,09,22,16,35,20.00
2008,09,22,16,36,20.00
2008,09,22,16,37,20.00
2008,09,22,16,38,20.00
2008,09,22,16,39,20.00
2008,09,22,16,40,20.00
2008,09,22,16,41,20.00
2008,09,22,16,42,19.90
2008,09,22,16,43,19.90
2008,09,22,16,44,19.90
2008,09,22,16,45,19.90
2008,09,22,16,46,19.90
2008,09,22,16,47,19.80
2008,09,22,16,48,19.80
2008,09,22,16,49,19.80
2008,09,22,16,50,19.80
2008,09,22,16,51,19.70
2008,09,22,16,52,19.70
2008,09,22,16,53,19.70
2008,09,22,16,54,19.70
2008,09,22,16,55,19.60
2008,09,22,16,56,19.60
2008,09,22,16,57,19.50
2008,09,22,16,58,19.50
2008,09,22,16,59,19.50
2008,09,22,17,00,19.50
2008,09,22,17,01,19.50
2008,09,22,17,02,19.40
2008,09,22,17,03,19.40
2008,09,22,17,04,19.40
2008,09,22,17,05,19.40
2008,09,22,17,06,19.30
2008,09,22,17,07,19.30
2008,09,22,17,08,19.30
2008,09,22,17,09,19.20
2008,09,22,17,10,19.20
2008,09,22,17,11,19.10
2008,09,22,17,12,19.10
2008,09,22,17,13,19.10
2008,09,22,17,14,19.10
2008,09,22,17,15,19.10
2008,09,22,17,16,19.00
2008,09,22,17,17,18.90
2008,09,22,17,18,18.90
2008,09,22,17,19,18.90
2008,09,22,17,21,18.80
2008,09,22,17,22,18.80
2008,09,22,17,23,18.70
2008,09,22,17,24,18.70
2008,09,22,17,25,18.70
2008,09,22,17,26,18.70
2008,09,22,17,27,18.70
2008,09,22,17,28,18.70
2008,09,22,17,29,18.70
2008,09,22,17,30,18.70
2008,09,22,17,31,18.70
2008,09,22,17,32,18.70
2008,09,22,17,33,18.70
2008,09,22,17,34,18.70
2008,09,22,17,35,18.60
2008,09,22,17,36,18.60
2008,09,22,17,37,18.60
2008,09,22,17,38,18.60
2008,09,22,17,39,18.60
2008,09,22,17,40,18.50
2008,09,22,17,41,18.50
2008,09,22,17,42,18.40